Metcalfe, MS

1:25 AM CDT on July 30, 2016 (GMT -0500)
Mid Delta Regional

Weather History for KGLH - September, 2011

Change the Weather History Date:

Monday, September 19, 2011

  Actual Average Record
Temperature  
Mean Temperature 74 °F 74 °F  
Max Temperature 82 °F 86 °F 100 °F (1925)
Min Temperature 66 °F 62 °F 45 °F (1981)
Degree Days  
Heating Degree Days 0 0  
Month to date heating degree days 2 0  
Since 1 July heating degree days 2 0  
Cooling Degree Days 9 9  
Month to date cooling degree days 157 224  
Year to date cooling degree days 2311 2003  
Growing Degree Days 24 (Base 50)    
Moisture  
Dew Point 69 °F    
Average Humidity 79    
Maximum Humidity 100    
Minimum Humidity 58    
Precipitation  
Precipitation 0.21 in 0.09 in 4.00 in (1953)
Month to date precipitation 2.62 1.96  
Year to date precipitation 19.64 36.52  
Sea Level Pressure  
Sea Level Pressure 29.98 in    
Wind  
Wind Speed 9 mph (NW)    
Max Wind Speed 17 mph    
Max Gust Speed 20 mph    
Visibility 8 miles    
Events Rain , Thunderstorm    
T = Trace of Precipitation, MM = Missing Value Source: NWS Daily Summary

Daily Weather History Graph

Daily Weather History Graph

Search for Another Location

Airport or City:

Trip Planner

Search our weather history database for the weather conditions in past years. The results will help you decide how hot, cold, wet, or windy it might be!

Date:

Astronomy

Sep. 19, 2011 Rise Set
Actual Time 6:49 AM CDT 7:05 PM CDT
Civil Twilight 6:25 AM CDT 7:29 PM CDT
Nautical Twilight 5:55 AM CDT 7:58 PM CDT
Astronomical Twilight 5:26 AM CDT 8:28 PM CDT
Moon 11:32 PM CDT (9/19) 1:19 PM CDT (9/19)
Length of Visible Light 13h 04m
Length of Day
12h 15m
Waning Gibbous, 58% of the Moon is Illuminated
Sep 19
Waning Gibbous
Sep 20
Last Quarter
Sep 27
New
Oct 3
First Quarter
Oct 11
Full

Hourly Weather History & Observations

Time (CDT) Temp. Heat Index Dew Point Humidity Pressure Visibility Wind Dir Wind Speed Gust Speed Precip Events Conditions
12:53 AM 75.0 °F - 70.0 °F 84% 30.02 in 10.0 mi SSW 8.1 mph - N/A   Mostly Cloudy
1:53 AM 75.0 °F - 70.0 °F 84% 30.01 in 9.0 mi SSW 5.8 mph - 0.00 in   Overcast
2:53 AM 73.0 °F - 71.1 °F 93% 30.00 in 9.0 mi Calm Calm - 0.00 in   Overcast
3:49 AM 73.4 °F - 69.8 °F 88% 29.98 in 8.0 mi Calm Calm - N/A Thunderstorm Overcast
4:21 AM 73.4 °F - 69.8 °F 88% 29.98 in 9.0 mi West 4.6 mph - N/A   Overcast
4:32 AM 73.4 °F - 71.6 °F 94% 29.98 in 2.5 mi WSW 11.5 mph 16.1 mph 0.07 in Rain , Thunderstorm Heavy Thunderstorms and Rain
4:34 AM 73.4 °F - 71.6 °F 94% 29.98 in 1.8 mi West 11.5 mph 16.1 mph 0.11 in Rain , Thunderstorm Heavy Thunderstorms and Rain
4:37 AM 73.4 °F - 71.6 °F 94% 29.98 in 1.2 mi West 8.1 mph - 0.15 in Rain , Thunderstorm Heavy Thunderstorms and Rain
4:53 AM 69.1 °F - 68.0 °F 96% 29.99 in 6.0 mi NNW 10.4 mph - 0.19 in Rain Light Rain
5:12 AM 69.8 °F - 68.0 °F 94% 29.98 in 8.0 mi North 6.9 mph - 0.00 in Thunderstorm Mostly Cloudy
5:25 AM 69.8 °F - 68.0 °F 94% 29.97 in 7.0 mi North 6.9 mph - 0.00 in   Mostly Cloudy
6:06 AM 69.8 °F - 69.8 °F 100% 29.96 in 6.0 mi North 4.6 mph - N/A   Mostly Cloudy
6:33 AM 69.8 °F - 69.8 °F 100% 29.94 in 4.0 mi Calm Calm - 0.00 in Rain Light Rain
6:53 AM 71.1 °F - 70.0 °F 96% 29.96 in 5.0 mi Calm Calm - 0.00 in   Mostly Cloudy
7:41 AM 71.6 °F - 71.6 °F 100% 29.97 in 4.0 mi NW 9.2 mph - N/A   Mostly Cloudy
7:51 AM 71.6 °F - 71.6 °F 100% 29.98 in 4.0 mi NW 11.5 mph - N/A   Mostly Cloudy
7:53 AM 72.0 °F - 71.1 °F 97% 29.99 in 4.0 mi NW 11.5 mph - N/A   Overcast
8:06 AM 71.6 °F - 71.6 °F 100% 29.99 in 5.0 mi NW 12.7 mph - N/A   Overcast
8:45 AM 69.8 °F - 69.8 °F 100% 30.00 in 5.0 mi NW 13.8 mph - 0.02 in Rain Light Rain
8:53 AM 70.0 °F - 69.1 °F 97% 30.01 in 6.0 mi NW 15.0 mph - 0.02 in   Overcast
9:15 AM 69.8 °F - 68.0 °F 94% 29.99 in 8.0 mi NNW 13.8 mph - N/A   Overcast
9:53 AM 70.0 °F - 68.0 °F 93% 30.01 in 10.0 mi NNW 10.4 mph - 0.00 in   Overcast
10:53 AM 75.9 °F - 69.1 °F 79% 29.99 in 10.0 mi North 5.8 mph - N/A   Overcast
11:53 AM 73.9 °F - 68.0 °F 82% 30.00 in 10.0 mi NW 9.2 mph - N/A   Mostly Cloudy
12:53 PM 79.0 °F - 69.1 °F 72% 29.99 in 10.0 mi WNW 12.7 mph - N/A   Mostly Cloudy
1:24 PM 80.6 °F 82.7 °F 66.2 °F 61% 29.97 in 10.0 mi NW 12.7 mph - N/A   Mostly Cloudy
1:53 PM 79.0 °F - 66.9 °F 66% 29.98 in 10.0 mi NW 9.2 mph - N/A   Mostly Cloudy
2:53 PM 78.1 °F - 66.0 °F 66% 29.97 in 10.0 mi NW 11.5 mph - N/A   Clear
3:53 PM 80.1 °F 82.1 °F 66.0 °F 62% 29.95 in 10.0 mi NW 11.5 mph - N/A   Clear
4:53 PM 82.0 °F 84.1 °F 66.0 °F 58% 29.94 in 10.0 mi NNW 11.5 mph - N/A   Clear
5:53 PM 80.1 °F 82.3 °F 66.9 °F 64% 29.95 in 10.0 mi North 13.8 mph - N/A   Clear
6:53 PM 77.0 °F - 66.0 °F 69% 29.96 in 10.0 mi North 13.8 mph - N/A   Clear
7:53 PM 73.0 °F - 66.0 °F 79% 29.97 in 10.0 mi NNE 10.4 mph - N/A   Clear
8:53 PM 70.0 °F - 66.9 °F 90% 30.00 in 10.0 mi North 8.1 mph - N/A   Clear
9:53 PM 68.0 °F - 66.0 °F 93% 30.00 in 10.0 mi North 10.4 mph - N/A   Clear
10:53 PM 66.0 °F - 64.9 °F 96% 30.00 in 10.0 mi NNW 10.4 mph - N/A   Clear
11:53 PM 66.9 °F - 64.9 °F 93% 30.00 in 10.0 mi North 10.4 mph - N/A   Clear